663  
ASUS41 KBGM 260110  
RWRBGM  
 
REGIONAL WEATHER ROUNDUP  
NATIONAL WEATHER SERVICE BINGHAMTON NY  
900 PM EDT TUE SEP 25 2018  
 
NOTE: "FAIR" INDICATES FEW OR NO CLOUDS BELOW 12,000 FEET WITH NO  
SIGNIFICANT WEATHER AND/OR S TO VISIBILITY
.  
 
* = STATION(S) THAT DOES NOT REPORT PRECIPITATION, SUCH AS RAIN,  
SNOW, ETC, ALSO NO THUNDER OR FOG.
 
 
NYZ009-015>018-022>025-036-037-044>046-055>057-062-260200   
..CENTRAL NEW YORK
 
 
 
CITY SKY/WX TMP DP RH WIND PRES REMARKS
 
BINGHAMTON CLOUDY 63 62 97 S7 30.09F  
CORTLAND CLOUDY 63 61 94 CALM 30.07S  
DANSVILLE CLOUDY 69 63 81 SE6 30.00S  
ELMIRA CLOUDY 67 63 87 CALM 30.05R  
SENECA FALLS MOCLDY 66 64 94 S8 30.02S  
ITHACA MOCLDY 65 63 93 SE13 30.06F  
HAMILTON CLOUDY 63 59 88 S7 30.07F  
HORNELL CLOUDY 66 63 88 CALM 30.05F  
MONTICELLO FOG 58 58 100 E3 30.18F VSB 1/4  
ONEONTA PTCLDY 63 63 100 CALM 30.12F  
PENN YAN FAIR 67 62 84 S5 30.03S  
ROME CLOUDY 60 60 100 E8 30.08F  
SYRACUSE MOCLDY 64 64 100 E6 30.03F  

 
 
PAZ038>040-043-044-047-048-072-260200   
..NORTHEAST PENNSYLVANIA
 
 
 
CITY SKY/WX TMP DP RH WIND PRES REMARKS
 
SCRANTON CLOUDY 68 66 93 CALM 30.12F  

 

 
KEY  
WCI = WIND CHILL INDEX  
VSB = VISIBILITY  
HX = HEAT INDEX  

 
 
 
CLICK HERE TO GO TO PREVIOUS BULLETINS.

The Nexlab NY Page
The Nexlab PA Page Main Text Page